COSMOS 1275 DEB, 17629

Orbit data source: Space-Track

COSMOS 1275 DEB, 17629 is space debris in LEO originally from a launch on Thu, 04 Jun 1981 UTC launched from the Plesetsk Missile And Space Complex (PKMTR). Debris objects in space refer to the collection of defunct objects orbiting the Earth. Examples of debris include non-operational satellites, rocket bodies, and fragments generated from explosions, collisions, or faulty payload assembly.

Loading next visibility...
Identifier
17629, 1981-053KY
Orbit
LEO
Country
Flag of CISCIS
Related business
Manufacturer
Unknown
Mission
Spacecraft
Bus & Motor
Unknown
Mass
Unknown
Launch date (UTC)
1981-06-04 (45 years ago)
Launch vehicle
Unknown
Launch site
Plesetsk Missile And Space Complex (PKMTR)
Object type
Payload
Rocket body
Debris
Shape & HBR
Unknown shape, 0.1 m
Radar Cross Section
Small (<0.1 m²)

Expand to show TLE details & history
Last TLE update: 13 hours ago

TLE from 13 hours ago
0 COSMOS 1275 DEB
1 17629U 81053KY  26072.00582854  .00001287  00000-0  13565-2 0  9991
2 17629  82.9826  79.4392 0161505  95.1136 328.2826 13.68443528 24729
Epoch: 2026-03-13T00:08Z
TLE epoch observation values (Epoch: 2026-03-13T00:08:23.585Z)
Latitude
61.68826°
Longitude
-80.16873°
Altitude
914.81 km
Speed
7.451 km/s
True Right ascension
06h 10m 18s
True Declination
61° 32' 51"
Sunlit
Object was in daylight at epoch
Visualization orbit readout
Latitude
Unknown
Longitude
Unknown
Altitude
Unknown
Speed
Unknown
Apparent Right ascension
Unknown
Apparent Declination
Unknown
Sunlit
N/A
Visualization observer readout
Local Sidereal Time
17:23:25
Azimuth
Unknown
Elevation
Unknown
Doppler factor
Unknown
Orbital elements
Apogee altitude
1,121.518 km
Perigee altitude
883.121 km
Semi-major axis
7,380.457 km
Eccentricity
0.01615
Inclination
82.9826°
RAAN
79.4392°
Arg. of periapsis
95.1136°
True anomaly
327.29269°
Mean anomaly
328.2826°
Eccentric anomaly
327.78935°
Mean motion
3.42309 °/min
Orbital period
105.17 mins
BSTAR
0.0013565
Loading maneuver chart data...
Computing Atmospheric mass density...
Loading historical data...
Loading historical data...
Loading historical data...
Loading historical data...
Loading historical data...
Loading historical data...
Loading historical data...

Documentation

Showing up to 5 results
|